UAE-813

operational
NORAD ID: 66994 Int'l Des: 2025-292 Owner: UAESA/UAEU Country: UAE
LEOCIRCULARRETROGRADESSO

About UAE-813

Description loading...

Live Position

Loading 3D Globe...

Upcoming Passes

Altitude History

Altitude vs Time

uPlot chart will show altitude changes over time

Two-Line Element Set

1 66994U 25292B 26014.19219256 .00002815 00000-0 20271-3 0 9993
2 66994 97.6499 91.4334 0015887 157.7256 202.4664 15.04912517 5279
Epoch: Jan 14, 2026 • Age: 13 hours

Current Status

Altitude 562.3 km
Velocity 7.58 km/s
Sub-Earth Point 40.98°N, 67.68°E
Launch Date Dec 10, 2025
Age 35 days
Type other

Technical Details

Classification Payload
Mass 260.00 kg
Dry Mass 260.00 kg
Total Mass 260.00 kg
Length 1.00 m
Diameter 1.00 m
Span 6.00 m
Shape Box+ pan
Manufacturer IMICAS/UAEU
Phase Status In Orbit
Owner/State UAESA/UAEU/UAE

Large Constellations

Loading constellations...